SCP
3 2 1 2 3 5 7 6 5 5 6 6 6 6 7 7 7 6 5 5 4 4 3 3 3 3 3 3 2 2 1 1 1 1 1 1 1 1 1 1 1 1 1
2 2 2 2 3 6 7 6 5 5 6 6 6 6 7 7 7 6 5 5 4 4 4 4 3 3 3 3 2 2 1 1 1 1 1 1 1 1 1 1 1 1 1
2 2 2 3 4 6 7 6 4 5 5 6 7 7 7 7 7 6 5 5 5 5 5 4 4 4 4 3 3 2 2 1 1 1 1 1 1 1 1 1 1 1 1
2 2 2 3 4 4 5 5 4 4 5 6 7 7 7 7 7 6 5 6 6 7 6 5 5 5 4 4 4 3 2 2 1 1 1 1 1 1 1 1 1 1 1
2 2 3 3 4 3 3 3 4 4 5 6 7 8 7 7 7 6 6 6 6 7 7 7 6 6 5 5 4 4 3 2 2 2 2 2 2 2 2 2 1 1 1
3 4 4 4 4 3 3 3 3 4 5 6 7 8 8 7 7 7 6 6 6 7 7 8 8 7 6 5 5 5 4 3 2 2 2 3 3 3 2 2 1 1 1
5 5 6 5 4 4 3 3 3 3 5 6 7 8 8 8 8 7 7 6 7 7 8 8 9 8 7 6 5 5 5 3 3 2 2 2 3 2 2 2 1 1 1
5 5 5 4 4 4 4 4 3 4 4 5 6 7 8 8 8 7 7 7 7 8 8 8 9 8 8 7 6 6 5 4 3 2 2 2 2 2 1 1 1 1 1
4 4 4 4 5 5 6 6 5 4 4 4 5 5 6 6 6 6 6 6 7 7 8 8 8 8 8 8 7 6 5 4 2 2 1 1 1 1 1 1 1 1 1
3 3 4 4 6 8 8 7 5 4 4 4 4 3 4 4 5 4 4 5 5 6 6 6 7 7 7 7 7 6 4 3 2 1 1 1 2 2 1 1 1 1 1
3 4 4 6 8 9 9 7 5 3 3 3 3 3 3 3 3 3 3 3 3 4 5 5 6 6 6 7 6 5 3 2 2 1 1 2 2 2 1 1 1 1 1
5 5 6 7 9 9 8 6 4 3 3 3 3 3 3 3 2 2 2 2 2 3 4 5 5 6 6 6 5 4 3 2 2 2 2 2 2 1 1 1 1 1 1
7 7 8 8 7 7 6 4 4 3 3 3 3 3 2 2 2 2 1 1 1 2 3 4 5 6 6 6 5 4 3 2 2 2 2 2 1 1 0 0 0 0 0
7 8 7 7 5 4 3 3 3 4 4 3 3 2 2 2 2 2 1 1 1 1 2 3 4 6 6 6 5 4 3 3 3 3 2 1 1 1 1 0 0 0 0
5 5 5 4 3 2 2 3 3 4 4 3 3 2 1 1 2 2 1 1 1 1 2 2 3 5 6 6 5 4 3 3 3 3 2 1 1 1 1 0 0 0 0
3 2 2 2 2 2 2 2 3 4 4 4 3 2 2 2 2 2 2 2 2 2 2 2 2 3 5 4 3 3 3 3 3 2 2 1 1 1 0 0 0 0 0
2 2 2 2 2 2 2 2 3 4 4 4 3 3 3 4 4 3 3 2 2 2 2 2 2 2 3 2 2 2 3 3 2 2 2 1 1 1 1 0 0 0 0
1 1 2 2 2 2 2 2 3 4 4 4 4 4 5 5 5 4 3 3 3 2 2 2 2 2 2 1 1 1 2 3 2 2 2 1 1 1 1 1 1 0 0
1 1 2 2 3 2 2 2 3 4 4 4 4 4 5 6 5 4 3 3 3 2 2 2 2 1 1 1 0 1 2 3 2 2 2 1 1 1 1 1 1 1 1
2 2 2 3 3 2 2 2 2 3 4 4 4 4 4 5 4 4 3 3 2 2 1 1 1 1 1 0 0 1 2 3 2 2 2 1 1 1 0 1 1 1 1
2 2 2 3 3 2 2 2 2 2 3 4 4 4 3 3 3 3 3 3 2 1 1 1 1 1 0 0 0 0 1 2 2 2 2 1 1 0 0 0 1 1 1
2 2 2 3 3 2 2 2 1 2 3 4 4 3 2 2 2 3 3 2 1 1 1 1 1 0 0 0 0 0 1 1 1 2 2 1 1 0 0 0 0 0 1
3 3 3 3 2 2 2 2 1 1 2 3 4 3 2 2 2 2 2 1 1 1 1 1 1 0 0 1 0 0 0 0 1 1 1 1 0 0 0 0 0 0 0
3 3 3 3 3 2 2 1 1 1 1 3 4 4 3 2 1 1 1 1 1 0 0 0 1 1 1 1 0 0 0 0 0 0 0 0 0 0 0 0 0 0 0
2 3 3 3 3 2 1 1 1 1 2 4 5 4 3 2 1 1 1 1 0 0 0 0 1 1 1 1 0 0 0 0 0 0 0 0 0 0 1 1 1 1 1
1 2 2 3 3 2 1 1 0 1 2 4 5 5 4 2 2 1 1 0 0 0 0 0 1 1 1 1 0 0 0 0 0 0 0 0 1 1 1 1 1 1 1
Wind_Speed
5 4 4 5 5 5 5 6 6 5 5 4 3 3 2 1 1 2 2 3 3 3 3 2 2 2 2 2 2 2 2 1 1 2 2 2 2 1 1 0 0 1 1
3 3 4 5 6 6 6 6 6 6 5 4 3 3 2 2 2 1 2 2 3 3 3 3 2 2 2 2 2 2 2 1 1 1 1 2 2 2 1 0 0 1 0
7 6 6 6 6 7 7 6 6 6 5 5 3 3 2 2 1 1 1 2 3 3 3 3 3 2 2 2 2 2 2 1 1 1 2 2 1 2 2 1 1 0 0
5 5 6 6 6 7 6 6 6 6 5 5 5 5 4 3 3 2 2 1 2 3 3 3 4 3 2 2 2 2 2 2 1 0 0 1 2 1 1 2 1 1 1
6 6 6 6 6 6 6 5 5 5 5 5 6 5 4 3 2 1 2 1 1 2 3 3 3 3 3 3 2 2 2 2 2 1 1 1 1 2 2 2 2 2 2
6 5 4 3 4 4 5 5 5 5 5 6 6 6 6 4 3 3 2 2 1 1 2 3 3 3 3 3 3 3 3 2 2 2 2 2 2 2 2 2 2 2 2
5 5 5 4 4 5 5 5 6 5 5 6 6 6 6 6 5 5 4 3 2 2 3 3 3 3 3 3 3 3 3 3 2 2 2 2 2 2 2 2 1 1 2
4 5 5 5 5 6 5 6 6 6 6 6 6 6 6 4 4 4 4 4 3 3 3 3 3 3 3 3 3 2 2 2 2 2 2 1 2 2 2 2 2 1 1
4 4 4 4 4 6 6 7 7 6 6 6 5 4 4 4 4 4 3 3 2 2 3 3 3 3 3 3 3 2 2 2 1 1 1 1 2 2 2 2 2 2 2
3 3 3 3 4 4 4 5 6 5 5 5 4 4 4 4 4 3 3 3 2 2 3 3 3 3 3 3 3 2 2 2 2 2 2 2 2 1 2 2 2 2 3
2 3 2 3 3 2 3 3 4 4 4 4 4 4 3 3 3 3 3 3 2 2 3 3 3 3 3 3 3 2 3 2 2 2 2 3 3 2 2 2 2 2 2
1 1 2 3 2 2 2 3 3 4 4 4 4 4 3 3 3 3 3 2 2 2 3 3 4 4 3 3 3 3 3 3 3 3 3 3 2 3 2 2 2 2 3
2 2 3 3 2 2 2 2 2 3 3 4 4 3 3 3 4 3 3 3 3 3 3 3 4 4 4 4 4 4 4 4 4 4 4 4 3 3 3 3 3 2 2
2 2 2 2 2 2 2 2 1 2 3 4 4 3 3 3 3 3 3 3 3 3 3 4 4 4 4 4 4 4 4 4 4 4 4 4 4 4 4 3 3 3 2
1 1 2 1 1 1 1 2 1 2 2 3 3 3 3 2 2 2 3 3 3 3 3 3 4 4 4 4 4 4 4 4 4 3 4 4 4 5 4 3 3 3 2
2 1 1 2 1 1 2 2 1 2 2 3 3 3 2 2 2 2 2 2 3 3 2 3 4 4 3 4 5 4 3 4 4 4 3 3 4 4 4 4 5 5 5
2 2 1 1 1 1 1 2 2 2 2 2 2 3 3 3 3 3 2 2 3 3 3 3 3 3 3 4 4 4 3 4 4 4 3 3 2 3 3 3 4 4 5
1 1 1 1 1 0 0 1 1 2 2 2 2 2 2 2 2 2 2 3 2 2 3 3 3 3 3 4 5 5 4 3 3 3 4 3 3 3 2 2 2 3 3
1 1 1 2 2 1 1 1 1 1 1 1 2 2 3 2 2 2 2 2 2 2 2 2 2 2 2 4 4 4 2 2 3 3 3 3 3 3 3 2 2 2 2
1 1 1 1 2 1 2 2 1 1 2 2 2 2 2 3 3 2 2 1 1 2 2 2 2 2 2 3 4 3 2 2 2 2 2 3 3 3 4 3 3 4 3
1 1 1 1 1 2 2 2 0 2 3 2 1 1 2 2 2 1 1 1 1 0 1 1 1 2 2 3 4 4 2 3 2 2 2 2 3 3 4 4 4 5 4
1 1 1 1 1 1 2 2 2 2 1 1 2 1 1 1 1 1 1 1 1 1 1 1 1 1 1 2 3 4 4 3 3 3 3 2 3 3 3 3 3 3 2
1 1 2 1 1 1 2 2 3 1 1 2 2 1 1 0 1 2 2 2 2 2 2 1 2 2 2 2 3 4 5 4 3 3 3 3 3 2 2 3 3 2 2
1 1 1 1 2 2 2 3 3 2 2 2 2 1 1 0 0 1 1 2 2 2 2 2 2 2 2 2 1 2 2 2 2 2 2 2 2 2 1 1 2 2 2
2 1 2 3 3 3 3 2 2 3 3 2 2 1 1 1 1 1 1 2 2 3 3 3 3 2 3 3 3 2 2 2 2 2 1 1 1 0 1 1 1 1 2
2 2 2 3 3 3 3 3 2 4 4 2 2 1 1 1 1 1 1 1 1 2 3 3 3 3 3 2 2 3 3 3 4 3 1 1 1 1 2 2 1 1 2
Wind_Direction
207 184 182 175 162 161 162 164 164 163 153 152 154 153 168 165 160 170 156 156 155 158 151 143 135 132 126 130 124 112 92 74 78 83 37 15 18 3 316 308 316 285 264
201 191 182 179 177 176 173 170 171 169 167 167 161 155 148 158 174 171 158 161 165 163 161 154 154 147 129 114 117 117 110 76 63 106 90 14 355 349 353 6 258 272 274
199 198 189 191 185 184 181 180 176 172 168 156 133 112 93 75 97 141 179 180 174 170 162 160 155 156 152 153 147 141 143 141 52 91 137 144 230 311 332 332 324 325 277
197 195 190 189 193 195 182 175 173 167 163 154 152 154 159 170 194 185 192 179 177 180 173 163 163 165 160 160 165 154 149 143 163 86 88 173 171 185 308 325 326 312 293
196 195 194 195 195 188 178 174 166 165 164 163 163 163 167 174 168 156 159 174 195 195 181 169 167 170 167 164 159 147 151 164 174 179 178 183 197 201 205 273 311 319 297
196 189 179 176 186 179 171 170 169 169 166 169 170 172 172 168 162 175 181 191 200 205 194 174 171 172 166 167 169 163 171 185 182 188 191 189 193 200 196 228 268 289 295
184 174 171 174 179 185 183 175 172 176 176 176 180 183 182 178 185 192 195 191 194 206 210 187 173 174 179 168 157 157 173 186 184 197 206 209 218 200 187 198 232 271 302
174 176 181 179 185 191 186 172 174 181 182 186 192 188 185 184 194 197 192 192 199 208 199 185 182 182 175 167 157 161 187 178 193 201 197 203 227 211 200 191 186 242 297
174 179 180 177 180 183 186 182 179 179 182 188 189 187 187 187 193 192 183 187 195 193 181 174 179 179 171 167 163 172 190 171 192 196 195 226 236 221 218 204 195 192 240
163 174 176 175 176 180 179 173 173 179 179 179 181 177 181 190 191 181 185 186 195 189 165 166 175 175 172 170 166 169 182 179 211 205 199 229 233 218 211 207 207 206 210
173 179 174 165 153 142 145 153 159 162 168 176 174 171 181 180 173 176 189 177 175 176 179 179 177 180 183 180 176 186 185 189 219 229 218 230 217 205 208 196 193 202 201
142 144 129 115 114 128 141 150 160 169 178 174 164 175 179 175 176 182 184 173 177 191 193 185 182 189 190 187 185 202 202 197 211 228 229 238 219 205 205 193 200 207 206
84 80 87 106 113 127 138 152 161 169 169 158 155 165 180 184 187 192 187 181 191 200 198 189 192 200 202 198 199 202 207 206 213 219 220 226 209 213 211 203 202 206 202
91 86 82 84 110 127 127 132 137 141 145 147 152 167 191 202 200 191 189 189 196 206 205 207 208 208 208 205 201 202 205 207 221 225 222 223 214 215 209 208 207 197 188
88 105 109 97 84 96 95 98 112 124 136 146 159 184 192 196 193 196 202 196 198 216 216 214 221 216 211 211 204 203 201 205 218 230 229 228 224 216 207 203 199 189 192
207 187 150 121 107 111 128 130 142 151 143 154 177 178 174 176 184 201 209 206 208 219 222 221 220 218 224 215 203 197 201 208 212 224 234 238 238 234 220 215 209 197 197
214 204 189 158 160 183 166 171 175 146 139 156 171 172 176 184 195 199 194 211 220 221 227 229 213 218 225 212 206 206 202 209 215 220 227 233 235 220 220 224 228 227 219
207 207 184 158 143 139 144 152 127 137 151 162 170 174 176 189 188 179 203 220 223 222 228 233 221 218 225 212 208 207 205 211 222 221 220 224 238 230 215 215 228 243 241
213 212 170 158 150 159 167 106 105 133 155 192 205 195 184 184 185 193 225 232 218 223 233 227 215 214 237 218 207 196 199 210 230 233 226 222 228 236 207 196 219 250 265
139 137 122 127 140 151 144 124 137 173 214 224 216 199 188 189 202 212 228 231 208 226 224 227 221 216 232 218 201 189 196 211 228 242 242 229 228 228 201 199 202 222 237
147 136 133 150 182 156 142 139 180 247 243 222 182 169 182 192 206 207 215 190 170 178 224 231 242 230 226 220 208 197 202 211 217 231 248 247 232 229 215 203 206 220 223
172 158 152 193 247 173 152 168 242 260 239 178 160 165 168 186 182 191 199 177 154 153 241 250 277 276 253 228 222 214 215 210 211 229 242 245 223 219 223 212 214 216 200
241 195 170 193 254 211 177 202 250 245 194 155 160 177 163 176 195 200 197 184 172 182 211 223 248 266 261 246 234 229 231 228 223 233 232 234 222 209 210 210 207 191 189
244 217 180 216 248 245 240 234 237 205 175 170 176 183 174 203 217 205 194 188 193 199 211 219 233 256 264 257 248 243 243 234 222 213 205 213 204 191 204 211 209 209 209
253 211 207 234 250 253 259 252 226 179 177 177 175 174 185 198 220 218 208 213 220 213 210 222 218 220 250 263 252 225 221 216 206 176 156 129 123 171 240 249 236 220 213
245 235 227 237 249 249 254 252 220 185 177 180 184 180 184 203 219 236 283 309 278 253 227 220 214 227 234 257 259 243 227 204 168 143 157 185 201 216 239 248 260 247 234